Liberal, Kansas, United States (67901)
Lat: 37.04N, Lon: 100.92W
Wx Zone: KSZ086
Local Info
Past Weather Observations for Monday, March 2, 2015

NOTE: This archive is for the closest National Weather Service station to Liberal. Information may differ from the station used for current weather conditions.

Click here for Long-term Archive

Time Weather Temperature Dewpoint Humidity Pressure Winds Precip Visibility
23:55
Clear
36°F / 2°C 30°F / -1°C 81% 29.77 in
(1008 mb)
S 20.7 mph
(S 33 kph)
- 5SM
23:35
Clear
36°F / 2°C 28°F / -2°C 75% 29.77 in
(1008 mb)
S 21.9 mph
(S 35 kph)
- 6SM
23:15
Clear
36°F / 2°C 30°F / -1°C 81% 29.8 in
(1009 mb)
S 20.7 mph
(S 33 kph)
- 7SM
22:55
Clear
36°F / 2°C 30°F / -1°C 81% 29.8 in
(1009 mb)
SSE 21.9 mph
(SSE 35 kph)
- 8SM
22:35
Clear
36°F / 2°C 28°F / -2°C 75% 29.83 in
(1010 mb)
S 24.2 mph
(S 39 kph)
- 10SM
22:15
Clear
36°F / 2°C 30°F / -1°C 81% 29.83 in
(1010 mb)
S 21.9 mph
(S 35 kph)
- 10SM
21:55
Clear
36°F / 2°C 30°F / -1°C 81% 29.83 in
(1010 mb)
S 20.7 mph
(S 33 kph)
- 10SM
21:35
Clear
36°F / 2°C 28°F / -2°C 75% 29.86 in
(1011 mb)
S 17.3 mph
(S 28 kph)
- 10SM
21:15
Clear
36°F / 2°C 28°F / -2°C 75% 29.89 in
(1012 mb)
S 18.4 mph
(S 30 kph)
- 10SM
20:55
Clear
36°F / 2°C 28°F / -2°C 75% 29.89 in
(1012 mb)
S 17.3 mph
(S 28 kph)
- 10SM
20:35
Clear
36°F / 2°C 28°F / -2°C 75% 29.89 in
(1012 mb)
S 17.3 mph
(S 28 kph)
- 10SM
20:15
Clear
36°F / 2°C 28°F / -2°C 75% 29.89 in
(1012 mb)
S 16.1 mph
(S 26 kph)
- 10SM
19:55
Clear
36°F / 2°C 28°F / -2°C 75% 29.92 in
(1013 mb)
S 12.7 mph
(S 20 kph)
- 10SM
19:35
Clear
34°F / 1°C 28°F / -2°C 81% 29.92 in
(1013 mb)
S 17.3 mph
(S 28 kph)
- 9SM
19:15
Clear
34°F / 1°C 28°F / -2°C 81% 29.92 in
(1013 mb)
S 11.5 mph
(S 19 kph)
- 10SM
18:55
Clear
34°F / 1°C 28°F / -2°C 81% 29.92 in
(1013 mb)
S 12.7 mph
(S 20 kph)
- 10SM
18:35
Clear
34°F / 1°C 28°F / -2°C 81% 29.92 in
(1013 mb)
SSE 15 mph
(SSE 24 kph)
- 10SM
18:15
Clear
34°F / 1°C 28°F / -2°C 81% 29.95 in
(1014 mb)
S 15 mph
(S 24 kph)
- 10SM
17:55
Clear
34°F / 1°C 28°F / -2°C 81% 29.95 in
(1014 mb)
S 17.3 mph
(S 28 kph)
- 10SM
17:35
Partly Cloudy
36°F / 2°C 28°F / -2°C 75% 29.98 in
(1015 mb)
S 17.3 mph
(S 28 kph)
- 10SM
17:15
Overcast
36°F / 2°C 28°F / -2°C 75% 30.01 in
(1016 mb)
S 20.7 mph
(S 33 kph)
- 9SM
16:55
Overcast
34°F / 1°C 28°F / -2°C 81% 30.01 in
(1016 mb)
S 18.4 mph
(S 30 kph)
- 9SM
16:35
Overcast
34°F / 1°C 28°F / -2°C 81% 30.01 in
(1016 mb)
S 20.7 mph
(S 33 kph)
- 8SM
16:15
Overcast
34°F / 1°C 28°F / -2°C 81% 30.01 in
(1016 mb)
S 20.7 mph
(S 33 kph)
- 8SM
15:55
Overcast
34°F / 1°C 27°F / -3°C 75% 30.04 in
(1017 mb)
S 19.6 mph
(S 32 kph)
- 9SM
15:35
Overcast
34°F / 1°C 27°F / -3°C 75% 30.06 in
(1018 mb)
S 23 mph
(S 37 kph)
- 9SM
15:15
Overcast
34°F / 1°C 28°F / -2°C 81% 30.04 in
(1017 mb)
S 17.3 mph
(S 28 kph)
- 9SM
14:55
Overcast
34°F / 1°C 27°F / -3°C 75% 30.06 in
(1018 mb)
S 20.7 mph
(S 33 kph)
- 8SM
14:35
Overcast
34°F / 1°C 27°F / -3°C 75% 30.09 in
(1019 mb)
S 19.6 mph
(S 32 kph)
- 8SM
14:15
Overcast
34°F / 1°C 27°F / -3°C 75% 30.09 in
(1019 mb)
S 16.1 mph
(S 26 kph)
- 8SM
13:55
Overcast
32°F / 0°C 27°F / -3°C 80% 30.12 in
(1020 mb)
S 17.3 mph
(S 28 kph)
- 8SM
13:35
Overcast
32°F / 0°C 25°F / -4°C 75% 30.12 in
(1020 mb)
S 17.3 mph
(S 28 kph)
- 7SM
13:15
Overcast
32°F / 0°C 27°F / -3°C 80% 30.15 in
(1021 mb)
S 17.3 mph
(S 28 kph)
- 9SM
12:55
Overcast
30°F / -1°C 25°F / -4°C 80% 30.18 in
(1022 mb)
S 17.3 mph
(S 28 kph)
- 8SM
12:35
Overcast
30°F / -1°C 25°F / -4°C 80% 30.18 in
(1022 mb)
S 18.4 mph
(S 30 kph)
- 8SM
12:15
Overcast
30°F / -1°C 25°F / -4°C 80% 30.21 in
(1023 mb)
S 17.3 mph
(S 28 kph)
- 7SM
11:55
Overcast
30°F / -1°C 25°F / -4°C 80% 30.21 in
(1023 mb)
S 18.4 mph
(S 30 kph)
- 8SM
11:35
Overcast
30°F / -1°C 25°F / -4°C 80% 30.24 in
(1024 mb)
S 18.4 mph
(S 30 kph)
- 8SM
11:15
Overcast
30°F / -1°C 25°F / -4°C 80% 30.24 in
(1024 mb)
S 16.1 mph
(S 26 kph)
- 9SM
10:55
Overcast
28°F / -2°C 23°F / -5°C 80% 30.27 in
(1025 mb)
SSE 17.3 mph
(SSE 28 kph)
- 9SM
10:35
Overcast
28°F / -2°C 21°F / -6°C 74% 30.27 in
(1025 mb)
S 16.1 mph
(S 26 kph)
- 9SM
10:15
Overcast
28°F / -2°C 21°F / -6°C 74% 30.27 in
(1025 mb)
S 15 mph
(S 24 kph)
- 8SM
09:55
Overcast
28°F / -2°C 21°F / -6°C 74% 30.27 in
(1025 mb)
S 16.1 mph
(S 26 kph)
- 9SM
09:35
Overcast
28°F / -2°C 21°F / -6°C 74% 30.27 in
(1025 mb)
SSE 15 mph
(SSE 24 kph)
- 9SM
09:15
Overcast
28°F / -2°C 21°F / -6°C 74% 30.3 in
(1026 mb)
S 15 mph
(S 24 kph)
- 8SM
08:55
Overcast
27°F / -3°C 21°F / -6°C 80% 30.27 in
(1025 mb)
S 12.7 mph
(S 20 kph)
- 8SM
08:35
Overcast
27°F / -3°C 21°F / -6°C 80% 30.27 in
(1025 mb)
SSE 10.4 mph
(SSE 17 kph)
- 8SM
08:15
Overcast
27°F / -3°C 21°F / -6°C 80% 30.3 in
(1026 mb)
S 11.5 mph
(S 19 kph)
- 8SM
07:55
Overcast
27°F / -3°C 19°F / -7°C 74% 30.3 in
(1026 mb)
SSE 8.1 mph
(SSE 13 kph)
- 8SM
07:35
Overcast
25°F / -4°C 19°F / -7°C 80% 30.3 in
(1026 mb)
SE 5.8 mph
(SE 9 kph)
- 8SM
07:15
Overcast
25°F / -4°C 19°F / -7°C 80% 30.3 in
(1026 mb)
SE 6.9 mph
(SE 11 kph)
- 8SM
06:55
Overcast
23°F / -5°C 18°F / -8°C 80% 30.3 in
(1026 mb)
SE 5.8 mph
(SE 9 kph)
- 8SM
06:35
Overcast
23°F / -5°C 18°F / -8°C 80% 30.3 in
(1026 mb)
SE 5.8 mph
(SE 9 kph)
- 9SM
06:15
Partly Cloudy
23°F / -5°C 18°F / -8°C 80% 30.3 in
(1026 mb)
SSE 4.6 mph
(SSE 7 kph)
- 10SM
05:55
Clear
23°F / -5°C 18°F / -8°C 80% 30.33 in
(1027 mb)
S 6.9 mph
(S 11 kph)
- 9SM
05:35
Partly Cloudy
23°F / -5°C 18°F / -8°C 80% 30.33 in
(1027 mb)
S 4.6 mph
(S 7 kph)
- 10SM
05:15
Mostly Cloudy
23°F / -5°C 18°F / -8°C 80% 30.33 in
(1027 mb)
SSE 5.8 mph
(SSE 9 kph)
- 9SM
04:55
Clear
23°F / -5°C 18°F / -8°C 80% 30.33 in
(1027 mb)
SW 5.8 mph
(SW 9 kph)
- 10SM
04:35
Clear
25°F / -4°C 18°F / -8°C 74% 30.33 in
(1027 mb)
SW 5.8 mph
(SW 9 kph)
- 10SM
04:15
Clear
25°F / -4°C 18°F / -8°C 74% 30.33 in
(1027 mb)
SW 5.8 mph
(SW 9 kph)
- 10SM
03:55
Clear
23°F / -5°C 18°F / -8°C 80% 30.33 in
(1027 mb)
SW 5.8 mph
(SW 9 kph)
- 10SM
03:35
Clear
23°F / -5°C 18°F / -8°C 80% 30.36 in
(1028 mb)
SW 6.9 mph
(SW 11 kph)
- 9SM
03:15
Clear
21°F / -6°C 18°F / -8°C 86% 30.36 in
(1028 mb)
SSE 8.1 mph
(SSE 13 kph)
- 8SM
02:55
Clear
21°F / -6°C 16°F / -9°C 80% 30.36 in
(1028 mb)
SSE 4.6 mph
(SSE 7 kph)
- 8SM
02:35
Clear
23°F / -5°C 18°F / -8°C 80% 30.39 in
(1029 mb)
SSE 4.6 mph
(SSE 7 kph)
- 8SM
02:15
Partly Cloudy
25°F / -4°C 18°F / -8°C 74% 30.39 in
(1029 mb)
SSE 4.6 mph
(SSE 7 kph)
- 10SM
01:55
Partly Cloudy
25°F / -4°C 19°F / -7°C 80% 30.39 in
(1029 mb)
S 4.6 mph
(S 7 kph)
- 10SM
01:35
Mostly Cloudy
27°F / -3°C 19°F / -7°C 74% 30.39 in
(1029 mb)
S 3.5 mph
(S 6 kph)
- 10SM
01:15
Overcast
27°F / -3°C 21°F / -6°C 80% 30.39 in
(1029 mb)
Calm - 10SM
00:55
Overcast
27°F / -3°C 21°F / -6°C 80% 30.39 in
(1029 mb)
Calm - 10SM
00:35
Overcast
27°F / -3°C 21°F / -6°C 80% 30.39 in
(1029 mb)
SSE 3.5 mph
(SSE 6 kph)
- 10SM
00:15
Overcast
28°F / -2°C 21°F / -6°C 74% 30.39 in
(1029 mb)
SSE 3.5 mph
(SSE 6 kph)
- 10SM
Time Weather Temperature Dewpoint Humidity Pressure Winds Precip Visibility


Weather for websites

WeatherForYou.com, LLC is not responsible for any damages or problems caused by this service. Current weather conditions are obtained from the closest station including government and personal stations which may have varying degrees of accuracy. Weather forecasts are derived from the NOAA NDFD. Like all things, this site belongs to Jesus Christ... He just trusts me to maintain it. If you have any questions or comments email webmaster@weatherforyou.com

Copyright © 2015, WeatherForYou.com LLC. All rights reserved.